CZ-6A DEB, 54321

Orbit data source: Space-Track

CZ-6A DEB, 54321 is space debris in SSO originally from a launch on Fri, 11 Nov 2022 UTC launched from the Taiyaun Space Center, China (TSC). Debris objects in space refer to the collection of defunct objects orbiting the Earth. Examples of debris include non-operational satellites, rocket bodies, and fragments generated from explosions, collisions, or faulty payload assembly.

Loading next visibility...
Identifier
54321, 2022-151BQ
Orbit
SSO
Country
Flag of CNCN / PRC
Related business
Manufacturer
SAST
Mission
Spacecraft
Bus & Motor
Unknown
Mass
Unknown
Launch date (UTC)
2022-11-11 (4 years ago)
Launch vehicle
Unknown
Launch site
Taiyaun Space Center, China (TSC)
Object type
Payload
Rocket body
Debris
Shape & HBR
Unknown shape, 0.1 m
Radar Cross Section
Medium (>0.1 m² and <1 m²)

Expand to show TLE details & history
Last TLE update: 2 days ago

TLE from 2 days ago
0 CZ-6A DEB
1 54321U 22151BQ  26171.05706888  .00000411  00000-0  13000-3 0  9998
2 54321  98.5957 209.3228 0119875 344.5202  15.2333 14.41578165188711
Epoch: 2026-06-20T01:22Z
TLE epoch observation values (Epoch: 2026-06-20T01:22:10.751Z)
Latitude
0.00001°
Longitude
-79.49916°
Altitude
673.808 km
Speed
7.563 km/s
True Right ascension
13h 57m 17s
True Declination
0° 00' 00"
Sunlit
Object was in full shadow at epoch
Visualization orbit readout
Latitude
Unknown
Longitude
Unknown
Altitude
Unknown
Speed
Unknown
Apparent Right ascension
Unknown
Apparent Declination
Unknown
Sunlit
N/A
Visualization observer readout
Local Sidereal Time
21:59:48
Azimuth
Unknown
Elevation
Unknown
Doppler factor
Unknown
Orbital elements
Apogee altitude
835.866 km
Perigee altitude
664.959 km
Semi-major axis
7,128.55 km
Eccentricity
0.01199
Inclination
98.5957°
RAAN
209.3228°
Arg. of periapsis
344.5202°
True anomaly
15.59952°
Mean anomaly
15.2333°
Eccentric anomaly
15.41588°
Mean motion
3.60613 °/min
Orbital period
99.83 mins
BSTAR
0.00013
Loading maneuver chart data...
Computing Atmospheric mass density...
Loading historical data...
Loading historical data...
Loading historical data...
Loading historical data...
Loading historical data...
Loading historical data...
Loading historical data...

Documentation

Showing up to 5 results
|